| time (UTC) | temp C | wind direction | speed KPH | gust KPH | rain 1hr cm | rain 24hr cm | rain mn cm | humidity % | barometer mb |
| 20260510063946 | 12 | 17 | 19.3 | 30.6 | 0.00 | 0.00 | 0.00 | 82 | 1015.0 |
| 20260510063449 | 12 | 10 | 17.7 | 30.6 | 0.00 | 0.00 | 0.00 | 83 | 1014.9 |
| 20260510062947 | 11 | 20 | 14.5 | 35.4 | 0.00 | 0.00 | 0.00 | 83 | 1015.1 |
| 20260510062449 | 11 | 4 | 24.1 | 35.4 | 0.00 | 0.00 | 0.00 | 84 | 1015.1 |
| 20260510061957 | 11 | 18 | 17.7 | 27.4 | 0.00 | 0.00 | 0.00 | 86 | 1015.0 |
| 20260510061449 | 11 | 28 | 9.7 | 22.5 | 0.00 | 0.00 | 0.00 | 86 | 1015.3 |
| 20260510060948 | 11 | 10 | 11.3 | 17.7 | 0.00 | 0.00 | 0.00 | 88 | 1015.2 |
| 20260510060451 | 11 | 4 | 9.7 | 17.7 | 0.00 | 0.00 | 0.00 | 89 | 1015.1 |
| 20260510060211 | 10 | 18 | 14.5 | 17.7 | 0.00 | 0.00 | 0.00 | 89 | 1015.2 |
| 20260510055449 | 10 | 354 | 9.7 | 20.9 | 0.00 | 0.00 | 0.00 | 89 | 1015.3 |
| 20260510054951 | 10 | 348 | 9.7 | 20.9 | 0.00 | 0.00 | 0.00 | 89 | 1015.2 |
| 20260510054449 | 10 | 15 | 12.9 | 20.9 | 0.00 | 0.00 | 0.00 | 90 | 1015.3 |
| 20260510053948 | 10 | 9 | 9.7 | 20.9 | 0.00 | 0.00 | 0.00 | 90 | 1015.3 |
| 20260510053458 | 10 | 11 | 12.9 | 20.9 | 0.00 | 0.00 | 0.00 | 91 | 1015.2 |
| 20260510052951 | 10 | 2 | 11.3 | 20.9 | 0.00 | 0.00 | 0.00 | 91 | 1015.2 |
| 20260510052451 | 10 | 0 | 9.7 | 20.9 | 0.00 | 0.00 | 0.00 | 91 | 1015.2 |
| 20260510051455 | 10 | 346 | 9.7 | 16.1 | 0.00 | 0.00 | 0.00 | 92 | 1015.4 |
| 20260510050948 | 10 | 5 | 6.4 | 16.1 | 0.00 | 0.00 | 0.00 | 93 | 1015.3 |
| 20260510050451 | 10 | 355 | 9.7 | 14.5 | 0.00 | 0.00 | 0.00 | 93 | 1015.0 |
| 20260510045949 | 10 | 8 | 9.7 | 12.9 | 0.00 | 0.00 | 0.00 | 93 | 1015.2 |
| 20260510045712 | 9 | 11 | 8.0 | 12.9 | 0.00 | 0.00 | 0.00 | 93 | 1015.2 |
| 20260510045216 | 9 | 11 | 9.7 | 12.9 | 0.00 | 0.00 | 0.00 | 92 | 1015.1 |
| 20260510044452 | 9 | 11 | 8.0 | 12.9 | 0.00 | 0.00 | 0.00 | 92 | 1015.1 |
| 20260510043951 | 9 | 15 | 6.4 | 14.5 | 0.00 | 0.00 | 0.00 | 92 | 1015.0 |
| 20260510043448 | 9 | 11 | 9.7 | 14.5 | 0.00 | 0.00 | 0.00 | 92 | 1015.1 |
| 20260510042949 | 9 | 11 | 9.7 | 14.5 | 0.00 | 0.00 | 0.00 | 92 | 1015.1 |
| 20260510042449 | 9 | 10 | 9.7 | 14.5 | 0.00 | 0.00 | 0.00 | 92 | 1015.0 |
| 20260510041949 | 9 | 2 | 9.7 | 14.5 | 0.00 | 0.00 | 0.00 | 92 | 1014.8 |
| 20260510041451 | 9 | 6 | 9.7 | 12.9 | 0.00 | 0.00 | 0.00 | 92 | 1014.8 |
| 20260510040949 | 9 | 357 | 8.0 | 12.9 | 0.00 | 0.00 | 0.00 | 91 | 1014.9 |
| 20260510040450 | 9 | 1 | 8.0 | 16.1 | 0.00 | 0.00 | 0.00 | 91 | 1014.9 |
| 20260510035949 | 9 | 15 | 8.0 | 16.1 | 0.00 | 0.00 | 0.00 | 91 | 1015.0 |
| 20260510035457 | 9 | 8 | 8.0 | 12.9 | 0.00 | 0.00 | 0.00 | 91 | 1015.0 |
| 20260510034952 | 9 | 358 | 9.7 | 12.9 | 0.00 | 0.00 | 0.00 | 91 | 1014.8 |
| 20260510034450 | 9 | 1 | 9.7 | 11.3 | 0.00 | 0.00 | 0.00 | 91 | 1014.9 |
| 20260510033947 | 9 | 357 | 8.0 | 12.9 | 0.00 | 0.00 | 0.00 | 90 | 1014.9 |
| 20260510033706 | 9 | 10 | 9.7 | 12.9 | 0.00 | 0.00 | 0.00 | 90 | 1014.9 |
| 20260510033231 | 9 | 12 | 9.7 | 12.9 | 0.00 | 0.00 | 0.00 | 90 | 1015.0 |
| 20260510032450 | 9 | 13 | 8.0 | 14.5 | 0.00 | 0.00 | 0.00 | 90 | 1015.2 |
| 20260510031947 | 9 | 10 | 9.7 | 14.5 | 0.00 | 0.00 | 0.00 | 90 | 1014.9 |
| 20260510031448 | 10 | 20 | 9.7 | 12.9 | 0.00 | 0.00 | 0.00 | 90 | 1014.9 |
| 20260510030951 | 10 | 13 | 9.7 | 14.5 | 0.00 | 0.00 | 0.00 | 90 | 1015.1 |
| 20260510030449 | 10 | 12 | 9.7 | 14.5 | 0.00 | 0.00 | 0.00 | 90 | 1015.0 |
| 20260510025951 | 10 | 12 | 9.7 | 12.9 | 0.00 | 0.00 | 0.00 | 90 | 1015.1 |
| 20260510025716 | 9 | 6 | 9.7 | 14.5 | 0.00 | 0.00 | 0.00 | 90 | 1015.0 |
| 20260510024949 | 10 | 346 | 9.7 | 14.5 | 0.00 | 0.00 | 0.00 | 89 | 1015.2 |
| 20260510024452 | 10 | 354 | 11.3 | 14.5 | 0.00 | 0.00 | 0.00 | 89 | 1015.2 |
| 20260510023448 | 10 | 343 | 8.0 | 14.5 | 0.00 | 0.00 | 0.00 | 88 | 1015.2 |
| 20260510022949 | 10 | 9 | 11.3 | 12.9 | 0.00 | 0.00 | 0.00 | 88 | 1015.3 |
| 20260510022449 | 10 | 25 | 8.0 | 14.5 | 0.00 | 0.00 | 0.00 | 88 | 1015.2 |
| 20260510021949 | 10 | 352 | 8.0 | 14.5 | 0.00 | 0.00 | 0.00 | 89 | 1015.0 |
| 20260510020948 | 9 | 355 | 9.7 | 14.5 | 0.00 | 0.00 | 0.00 | 89 | 1015.4 |
| 20260510020445 | 9 | 342 | 9.7 | 12.9 | 0.00 | 0.00 | 0.00 | 88 | 1015.2 |
| 20260510020205 | 9 | 0 | 8.0 | 11.3 | 0.00 | 0.00 | 0.00 | 88 | 1015.2 |
| 20260510015442 | 9 | 23 | 6.4 | 12.9 | 0.00 | 0.00 | 0.00 | 87 | 1015.3 |
| 20260510014942 | 10 | 358 | 8.0 | 14.5 | 0.00 | 0.00 | 0.00 | 87 | 1015.4 |
| 20260510014442 | 9 | 353 | 8.0 | 14.5 | 0.00 | 0.00 | 0.00 | 87 | 1015.4 |
| 20260510013942 | 10 | 352 | 8.0 | 12.9 | 0.00 | 0.00 | 0.00 | 87 | 1015.3 |
| 20260510013700 | 10 | 3 | 9.7 | 12.9 | 0.00 | 0.00 | 0.00 | 86 | 1015.4 |
| 20260510012944 | 10 | 358 | 6.4 | 11.3 | 0.00 | 0.00 | 0.00 | 86 | 1015.6 |
| 20260510012442 | 10 | 9 | 6.4 | 11.3 | 0.00 | 0.00 | 0.00 | 85 | 1015.4 |
| 20260510012211 | 10 | 8 | 6.4 | 11.3 | 0.00 | 0.00 | 0.00 | 84 | 1015.6 |
| 20260510011442 | 10 | 16 | 6.4 | 12.9 | 0.00 | 0.00 | 0.00 | 84 | 1015.6 |
| 20260510011206 | 10 | 9 | 9.7 | 14.5 | 0.00 | 0.00 | 0.00 | 84 | 1015.5 |
| 20260510005942 | 10 | 8 | 6.4 | 14.5 | 0.00 | 0.00 | 0.00 | 84 | 1015.6 |
| 20260510005442 | 10 | 0 | 8.0 | 14.5 | 0.00 | 0.00 | 0.00 | 84 | 1015.7 |
| 20260510004443 | 10 | 5 | 9.7 | 20.9 | 0.00 | 0.00 | 0.00 | 84 | 1015.7 |
| 20260510003942 | 10 | 343 | 8.0 | 20.9 | 0.00 | 0.00 | 0.00 | 84 | 1015.5 |
| 20260510003456 | 10 | 349 | 12.9 | 16.1 | 0.00 | 0.00 | 0.00 | 84 | 1015.7 |
| 20260510002947 | 10 | 355 | 14.5 | 16.1 | 0.00 | 0.00 | 0.00 | 84 | 1015.8 |
| 20260510002446 | 10 | 345 | 9.7 | 16.1 | 0.00 | 0.00 | 0.00 | 84 | 1015.7 |
| 20260510001946 | 10 | 356 | 11.3 | 16.1 | 0.00 | 0.00 | 0.00 | 84 | 1015.7 |
| 20260510001442 | 10 | 346 | 11.3 | 14.5 | 0.00 | 0.00 | 0.00 | 83 | 1015.9 |
| 20260510001213 | 10 | 354 | 9.7 | 14.5 | 0.00 | 0.00 | 0.00 | 83 | 1016.1 |
| 20260510000445 | 10 | 352 | 8.0 | 14.5 | 0.00 | 0.00 | 0.00 | 82 | 1016.0 |
| 20260509235945 | 11 | 348 | 9.7 | 14.5 | 0.00 | 0.00 | 0.00 | 81 | 1016.2 |
| 20260509235444 | 11 | 6 | 9.7 | 14.5 | 0.00 | 0.00 | 0.00 | 81 | 1016.1 |
| 20260509234944 | 11 | 5 | 9.7 | 14.5 | 0.00 | 0.00 | 0.00 | 80 | 1016.0 |
| 20260509234443 | 11 | 4 | 9.7 | 14.5 | 0.00 | 0.00 | 0.00 | 80 | 1016.2 |
| 20260509233943 | 11 | 356 | 8.0 | 16.1 | 0.00 | 0.00 | 0.00 | 80 | 1016.0 |
| 20260509233442 | 11 | 4 | 12.9 | 17.7 | 0.00 | 0.00 | 0.00 | 80 | 1016.1 |
| 20260509232942 | 11 | 0 | 9.7 | 17.7 | 0.00 | 0.00 | 0.00 | 79 | 1015.8 |
| 20260509232442 | 11 | 13 | 11.3 | 16.1 | 0.00 | 0.00 | 0.00 | 79 | 1016.2 |
| 20260509231943 | 11 | 351 | 9.7 | 14.5 | 0.00 | 0.00 | 0.00 | 79 | 1016.2 |
| 20260509231713 | 10 | 359 | 9.7 | 16.1 | 0.00 | 0.00 | 0.00 | 79 | 1016.2 |
| 20260509231205 | 11 | 354 | 8.0 | 16.1 | 0.00 | 0.00 | 0.00 | 78 | 1016.3 |
| 20260509230443 | 11 | 357 | 9.7 | 16.1 | 0.00 | 0.00 | 0.00 | 78 | 1016.2 |
| 20260509225942 | 11 | 352 | 12.9 | 17.7 | 0.00 | 0.00 | 0.00 | 77 | 1016.2 |
| 20260509225447 | 11 | 353 | 9.7 | 17.7 | 0.00 | 0.00 | 0.00 | 76 | 1016.3 |
| 20260509225200 | 11 | 344 | 9.7 | 17.7 | 0.00 | 0.00 | 0.00 | 76 | 1016.2 |
| 20260509224443 | 11 | 349 | 8.0 | 17.7 | 0.00 | 0.00 | 0.00 | 76 | 1016.2 |
| 20260509223940 | 11 | 351 | 11.3 | 17.7 | 0.00 | 0.00 | 0.00 | 76 | 1016.3 |
| 20260509223442 | 11 | 353 | 11.3 | 16.1 | 0.00 | 0.00 | 0.00 | 76 | 1016.2 |
| 20260509222942 | 11 | 354 | 14.5 | 16.1 | 0.00 | 0.00 | 0.00 | 75 | 1016.3 |
| 20260509222444 | 11 | 352 | 12.9 | 14.5 | 0.00 | 0.00 | 0.00 | 75 | 1016.3 |
| 20260509221943 | 11 | 347 | 12.9 | 14.5 | 0.00 | 0.00 | 0.00 | 74 | 1016.2 |
| 20260509221443 | 11 | 0 | 11.3 | 16.1 | 0.00 | 0.00 | 0.00 | 74 | 1016.3 |
| 20260509221002 | 11 | 357 | 8.0 | 16.1 | 0.00 | 0.00 | 0.00 | 74 | 1016.2 |
| 20260509220442 | 11 | 346 | 12.9 | 17.7 | 0.00 | 0.00 | 0.00 | 74 | 1016.1 |
| 20260509215944 | 12 | 355 | 8.0 | 17.7 | 0.00 | 0.00 | 0.00 | 73 | 1016.0 |
| 20260509215706 | 12 | 2 | 8.0 | 16.1 | 0.00 | 0.00 | 0.00 | 73 | 1016.2 |
| 20260509214942 | 12 | 353 | 9.7 | 14.5 | 0.00 | 0.00 | 0.00 | 72 | 1016.1 |
| 20260509214442 | 12 | 1 | 9.7 | 14.5 | 0.00 | 0.00 | 0.00 | 72 | 1016.1 |
| 20260509213941 | 12 | 357 | 9.7 | 17.7 | 0.00 | 0.00 | 0.00 | 73 | 1016.1 |
| 20260509213442 | 12 | 5 | 12.9 | 17.7 | 0.00 | 0.00 | 0.00 | 74 | 1016.3 |
| 20260509212943 | 12 | 354 | 9.7 | 17.7 | 0.00 | 0.00 | 0.00 | 73 | 1016.3 |
| 20260509212450 | 12 | 343 | 11.3 | 16.1 | 0.00 | 0.00 | 0.00 | 73 | 1016.2 |
| 20260509211942 | 12 | 346 | 11.3 | 16.1 | 0.00 | 0.00 | 0.00 | 73 | 1016.3 |
| 20260509211441 | 12 | 349 | 9.7 | 16.1 | 0.00 | 0.00 | 0.00 | 73 | 1016.1 |
| 20260509211211 | 12 | 354 | 9.7 | 14.5 | 0.00 | 0.00 | 0.00 | 73 | 1016.1 |
| 20260509210442 | 12 | 348 | 8.0 | 17.7 | 0.00 | 0.00 | 0.00 | 73 | 1016.1 |
| 20260509205942 | 12 | 10 | 9.7 | 22.5 | 0.00 | 0.00 | 0.00 | 73 | 1015.9 |
| 20260509205706 | 13 | 348 | 12.9 | 22.5 | 0.00 | 0.00 | 0.00 | 73 | 1016.0 |
| 20260509204945 | 13 | 345 | 11.3 | 20.9 | 0.00 | 0.00 | 0.00 | 73 | 1016.0 |
| 20260509204446 | 13 | 353 | 12.9 | 20.9 | 0.00 | 0.00 | 0.00 | 73 | 1016.0 |
| 20260509203945 | 13 | 354 | 9.7 | 17.7 | 0.00 | 0.00 | 0.00 | 73 | 1016.0 |
| 20260509203445 | 13 | 355 | 11.3 | 17.7 | 0.00 | 0.00 | 0.00 | 73 | 1015.8 |
| 20260509202953 | 13 | 9 | 11.3 | 20.9 | 0.00 | 0.00 | 0.00 | 72 | 1015.8 |
| 20260509202446 | 13 | 7 | 12.9 | 20.9 | 0.00 | 0.00 | 0.00 | 72 | 1015.8 |
| 20260509201946 | 13 | 1 | 12.9 | 22.5 | 0.00 | 0.00 | 0.00 | 73 | 1015.9 |
| 20260509201448 | 13 | 348 | 11.3 | 22.5 | 0.00 | 0.00 | 0.00 | 72 | 1016.0 |
| 20260509200445 | 13 | 353 | 14.5 | 20.9 | 0.00 | 0.00 | 0.00 | 72 | 1015.9 |
| 20260509195945 | 13 | 0 | 11.3 | 20.9 | 0.00 | 0.00 | 0.00 | 71 | 1016.1 |
| 20260509195445 | 13 | 353 | 9.7 | 22.5 | 0.00 | 0.00 | 0.00 | 71 | 1016.2 |
| 20260509194947 | 14 | 344 | 12.9 | 22.5 | 0.00 | 0.00 | 0.00 | 71 | 1016.0 |
| 20260509194454 | 14 | 347 | 16.1 | 22.5 | 0.00 | 0.00 | 0.00 | 70 | 1015.9 |
| 20260509193946 | 14 | 342 | 14.5 | 20.9 | 0.00 | 0.00 | 0.00 | 70 | 1015.6 |
| 20260509193446 | 14 | 348 | 12.9 | 20.9 | 0.00 | 0.00 | 0.00 | 70 | 1015.8 |
| 20260509192945 | 15 | 340 | 14.5 | 22.5 | 0.00 | 0.00 | 0.00 | 69 | 1015.9 |
| 20260509192442 | 15 | 353 | 14.5 | 27.4 | 0.00 | 0.00 | 0.00 | 69 | 1015.6 |
| 20260509191942 | 15 | 352 | 17.7 | 27.4 | 0.00 | 0.00 | 0.00 | 68 | 1015.6 |
| 20260509191442 | 15 | 7 | 14.5 | 20.9 | 0.00 | 0.00 | 0.00 | 68 | 1015.6 |
| 20260509191223 | 15 | 350 | 11.3 | 22.5 | 0.00 | 0.00 | 0.00 | 68 | 1015.6 |
| 20260509190442 | 15 | 350 | 14.5 | 17.7 | 0.00 | 0.00 | 0.00 | 68 | 1015.5 |
| 20260509190217 | 15 | 4 | 12.9 | 20.9 | 0.00 | 0.00 | 0.00 | 67 | 1015.6 |
| 20260509185444 | 16 | 352 | 14.5 | 22.5 | 0.00 | 0.00 | 0.00 | 65 | 1015.6 |
| 20260509184951 | 16 | 357 | 11.3 | 25.7 | 0.00 | 0.00 | 0.00 | 65 | 1015.8 |
| 20260509184441 | 16 | 343 | 16.1 | 25.7 | 0.00 | 0.00 | 0.00 | 63 | 1015.8 |
| 20260509184212 | 16 | 348 | 14.5 | 25.7 | 0.00 | 0.00 | 0.00 | 63 | 1015.6 |
| 20260509183442 | 16 | 354 | 9.7 | 22.5 | 0.00 | 0.00 | 0.00 | 62 | 1015.5 |
| 20260509183205 | 17 | 346 | 11.3 | 25.7 | 0.00 | 0.00 | 0.00 | 61 | 1015.7 |
| 20260509182455 | 17 | 358 | 14.5 | 25.7 | 0.00 | 0.00 | 0.00 | 60 | 1015.3 |
| 20260509182206 | 17 | 349 | 11.3 | 25.7 | 0.00 | 0.00 | 0.00 | 60 | 1015.4 |
| 20260509181442 | 17 | 343 | 11.3 | 27.4 | 0.00 | 0.00 | 0.00 | 59 | 1015.6 |
| 20260509180942 | 17 | 344 | 19.3 | 30.6 | 0.00 | 0.00 | 0.00 | 57 | 1015.4 |
| 20260509180442 | 17 | 355 | 22.5 | 30.6 | 0.00 | 0.00 | 0.00 | 56 | 1015.4 |
| 20260509175942 | 18 | 8 | 12.9 | 25.7 | 0.00 | 0.00 | 0.00 | 54 | 1015.5 |
| 20260509175441 | 18 | 338 | 11.3 | 25.7 | 0.00 | 0.00 | 0.00 | 56 | 1015.6 |
| 20260509174943 | 18 | 10 | 11.3 | 29.0 | 0.00 | 0.00 | 0.00 | 55 | 1015.5 |
| 20260509174444 | 18 | 357 | 16.1 | 29.0 | 0.00 | 0.00 | 0.00 | 55 | 1015.5 |
| 20260509173942 | 18 | 356 | 17.7 | 27.4 | 0.00 | 0.00 | 0.00 | 54 | 1015.4 |
| 20260509173706 | 18 | 354 | 19.3 | 27.4 | 0.00 | 0.00 | 0.00 | 53 | 1015.2 |
| 20260509173209 | 19 | 14 | 14.5 | 27.4 | 0.00 | 0.00 | 0.00 | 54 | 1015.1 |
| 20260509172442 | 19 | 12 | 12.9 | 27.4 | 0.00 | 0.00 | 0.00 | 54 | 1015.2 |
| 20260509171942 | 19 | 341 | 11.3 | 30.6 | 0.00 | 0.00 | 0.00 | 51 | 1015.2 |
| 20260509171710 | 19 | 344 | 17.7 | 27.4 | 0.00 | 0.00 | 0.00 | 52 | 1015.1 |
| 20260509170942 | 20 | 1 | 12.9 | 27.4 | 0.00 | 0.00 | 0.00 | 52 | 1015.2 |
| 20260509170443 | 20 | 322 | 19.3 | 27.4 | 0.00 | 0.00 | 0.00 | 51 | 1015.1 |
| 20260509170206 | 20 | 328 | 8.0 | 24.1 | 0.00 | 0.00 | 0.00 | 50 | 1015.1 |
| 20260509165442 | 20 | 355 | 16.1 | 27.4 | 0.00 | 0.00 | 0.00 | 51 | 1015.2 |
| 20260509164942 | 20 | 11 | 16.1 | 27.4 | 0.00 | 0.00 | 0.00 | 49 | 1015.2 |
| 20260509164446 | 20 | 92 | 4.8 | 11.3 | 0.00 | 0.00 | 0.00 | 48 | 1015.1 |
| 20260509163942 | 20 | 78 | 3.2 | 11.3 | 0.00 | 0.00 | 0.00 | 45 | 1015.3 |
| 20260509163443 | 20 | 86 | 9.7 | 11.3 | 0.00 | 0.00 | 0.00 | 46 | 1015.3 |
| 20260509163205 | 20 | 235 | 0.0 | 11.3 | 0.00 | 0.00 | 0.00 | 46 | 1015.3 |
| 20260509162705 | 20 | 299 | 8.0 | 12.9 | 0.00 | 0.00 | 0.00 | 46 | 1015.4 |
| 20260509161942 | 20 | 305 | 4.8 | 12.9 | 0.00 | 0.00 | 0.00 | 48 | 1015.3 |
| 20260509161449 | 20 | 303 | 3.2 | 11.3 | 0.00 | 0.00 | 0.00 | 48 | 1015.4 |
| 20260509160942 | 20 | 316 | 6.4 | 12.9 | 0.00 | 0.00 | 0.00 | 47 | 1015.4 |
| 20260509160455 | 20 | 336 | 6.4 | 12.9 | 0.00 | 0.00 | 0.00 | 47 | 1015.5 |
| 20260509155942 | 20 | 73 | 4.8 | 14.5 | 0.00 | 0.00 | 0.00 | 49 | 1015.5 |
| 20260509155443 | 20 | 77 | 6.4 | 14.5 | 0.00 | 0.00 | 0.00 | 48 | 1015.5 |
| 20260509154942 | 20 | 70 | 8.0 | 20.9 | 0.00 | 0.00 | 0.00 | 48 | 1015.3 |
| 20260509154443 | 20 | 44 | 8.0 | 20.9 | 0.00 | 0.00 | 0.00 | 46 | 1015.5 |
| 20260509153942 | 20 | 33 | 9.7 | 16.1 | 0.00 | 0.00 | 0.00 | 49 | 1015.5 |
| 20260509153443 | 20 | 36 | 9.7 | 20.9 | 0.00 | 0.00 | 0.00 | 48 | 1015.3 |
| 20260509152941 | 20 | 108 | 9.7 | 20.9 | 0.00 | 0.00 | 0.00 | 48 | 1015.4 |
| 20260509152443 | 21 | 51 | 6.4 | 12.9 | 0.00 | 0.00 | 0.00 | 48 | 1015.4 |
| 20260509151951 | 20 | 345 | 1.6 | 11.3 | 0.00 | 0.00 | 0.00 | 48 | 1015.5 |
| 20260509151445 | 20 | 27 | 0.0 | 11.3 | 0.00 | 0.00 | 0.00 | 46 | 1015.4 |
| 20260509150442 | 20 | 66 | 4.8 | 17.7 | 0.00 | 0.00 | 0.00 | 49 | 1015.6 |
| 20260509145708 | 21 | 13 | 11.3 | 17.7 | 0.00 | 0.00 | 0.00 | 49 | 1015.6 |
| 20260509145206 | 21 | 43 | 11.3 | 16.1 | 0.00 | 0.00 | 0.00 | 48 | 1015.4 |
| 20260509144442 | 21 | 81 | 3.2 | 12.9 | 0.00 | 0.00 | 0.00 | 49 | 1015.5 |
| 20260509144205 | 21 | 3 | 4.8 | 12.9 | 0.00 | 0.00 | 0.00 | 47 | 1015.6 |
| 20260509143441 | 21 | 26 | 4.8 | 12.9 | 0.00 | 0.00 | 0.00 | 48 | 1015.7 |
| 20260509142942 | 21 | 47 | 4.8 | 16.1 | 0.00 | 0.00 | 0.00 | 46 | 1015.8 |
| 20260509142443 | 20 | 13 | 8.0 | 17.7 | 0.00 | 0.00 | 0.00 | 45 | 1015.9 |
| 20260509142207 | 20 | 78 | 8.0 | 17.7 | 0.00 | 0.00 | 0.00 | 49 | 1015.7 |
| 20260509141706 | 20 | 71 | 8.0 | 12.9 | 0.00 | 0.00 | 0.00 | 49 | 1015.8 |
| 20260509140443 | 20 | 82 | 16.1 | 20.9 | 0.00 | 0.00 | 0.00 | 50 | 1015.8 |
| 20260509135943 | 20 | 63 | 6.4 | 17.7 | 0.00 | 0.00 | 0.00 | 50 | 1015.9 |
| 20260509135442 | 20 | 76 | 6.4 | 14.5 | 0.00 | 0.00 | 0.00 | 48 | 1016.0 |
| 20260509134944 | 20 | 94 | 11.3 | 14.5 | 0.00 | 0.00 | 0.00 | 49 | 1016.0 |
| 20260509134705 | 20 | 98 | 8.0 | 14.5 | 0.00 | 0.00 | 0.00 | 50 | 1015.9 |
| 20260509133946 | 20 | 9 | 9.7 | 16.1 | 0.00 | 0.00 | 0.00 | 50 | 1016.0 |
| 20260509133441 | 20 | 42 | 6.4 | 20.9 | 0.00 | 0.00 | 0.00 | 48 | 1016.0 |
| 20260509132942 | 20 | 55 | 11.3 | 24.1 | 0.00 | 0.00 | 0.00 | 51 | 1016.0 |
| 20260509131955 | 19 | 73 | 6.4 | 16.1 | 0.00 | 0.00 | 0.00 | 50 | 1016.0 |
| 20260509131442 | 20 | 73 | 11.3 | 22.5 | 0.00 | 0.00 | 0.00 | 50 | 1016.1 |
| 20260509130944 | 20 | 79 | 9.7 | 17.7 | 0.00 | 0.00 | 0.00 | 51 | 1016.2 |
| 20260509130709 | 20 | 313 | 1.6 | 14.5 | 0.00 | 0.00 | 0.00 | 50 | 1016.3 |
| 20260509125941 | 20 | 7 | 4.8 | 20.9 | 0.00 | 0.00 | 0.00 | 49 | 1016.4 |
| 20260509125443 | 20 | 60 | 8.0 | 22.5 | 0.00 | 0.00 | 0.00 | 51 | 1016.5 |
| 20260509124942 | 20 | 67 | 6.4 | 22.5 | 0.00 | 0.00 | 0.00 | 54 | 1016.6 |
| 20260509124446 | 20 | 37 | 9.7 | 22.5 | 0.00 | 0.00 | 0.00 | 50 | 1016.5 |
| 20260509123943 | 20 | 62 | 16.1 | 22.5 | 0.00 | 0.00 | 0.00 | 54 | 1016.6 |
| 20260509123443 | 20 | 84 | 11.3 | 20.9 | 0.00 | 0.00 | 0.00 | 48 | 1016.7 |
| 20260509122942 | 20 | 24 | 6.4 | 20.9 | 0.00 | 0.00 | 0.00 | 53 | 1016.7 |
| 20260509122700 | 20 | 28 | 8.0 | 20.9 | 0.00 | 0.00 | 0.00 | 55 | 1016.7 |
| 20260509121941 | 20 | 25 | 6.4 | 20.9 | 0.00 | 0.00 | 0.00 | 51 | 1016.9 |
| 20260509121443 | 20 | 15 | 12.9 | 22.5 | 0.00 | 0.00 | 0.00 | 53 | 1016.7 |
| 20260509121209 | 20 | 83 | 11.3 | 25.7 | 0.00 | 0.00 | 0.00 | 50 | 1016.8 |
| 20260509120444 | 20 | 359 | 9.7 | 25.7 | 0.00 | 0.00 | 0.00 | 51 | 1016.9 |
| 20260509115941 | 20 | 26 | 20.9 | 25.7 | 0.00 | 0.00 | 0.00 | 54 | 1016.9 |
| 20260509115442 | 20 | 9 | 12.9 | 25.7 | 0.00 | 0.00 | 0.00 | 53 | 1016.9 |
| 20260509114944 | 20 | 15 | 8.0 | 22.5 | 0.00 | 0.00 | 0.00 | 54 | 1017.3 |
| 20260509114440 | 19 | 18 | 9.7 | 24.1 | 0.00 | 0.00 | 0.00 | 52 | 1017.2 |
| 20260509113942 | 19 | 26 | 14.5 | 24.1 | 0.00 | 0.00 | 0.00 | 54 | 1017.2 |
| 20260509113441 | 19 | 6 | 9.7 | 27.4 | 0.00 | 0.00 | 0.00 | 54 | 1017.4 |
| 20260509112942 | 19 | 69 | 6.4 | 27.4 | 0.00 | 0.00 | 0.00 | 53 | 1017.4 |
| 20260509112442 | 19 | 2 | 14.5 | 17.7 | 0.00 | 0.00 | 0.00 | 57 | 1017.4 |
| 20260509111943 | 19 | 60 | 8.0 | 20.9 | 0.00 | 0.00 | 0.00 | 58 | 1017.5 |
| 20260509111446 | 19 | 73 | 9.7 | 20.9 | 0.00 | 0.00 | 0.00 | 57 | 1017.4 |
| 20260509111207 | 19 | 349 | 9.7 | 25.7 | 0.00 | 0.00 | 0.00 | 55 | 1017.4 |
| 20260509110704 | 19 | 53 | 11.3 | 25.7 | 0.00 | 0.00 | 0.00 | 53 | 1017.5 |
| 20260509105945 | 18 | 12 | 12.9 | 25.7 | 0.00 | 0.00 | 0.00 | 55 | 1017.8 |
| 20260509105446 | 19 | 32 | 14.5 | 20.9 | 0.00 | 0.00 | 0.00 | 54 | 1017.8 |
| 20260509104942 | 19 | 72 | 9.7 | 24.1 | 0.00 | 0.00 | 0.00 | 54 | 1017.8 |
| 20260509104443 | 18 | 0 | 17.7 | 24.1 | 0.00 | 0.00 | 0.00 | 57 | 1017.4 |
| 20260509103941 | 19 | 41 | 16.1 | 20.9 | 0.00 | 0.00 | 0.00 | 58 | 1017.6 |
| 20260509103442 | 18 | 78 | 8.0 | 25.7 | 0.00 | 0.00 | 0.00 | 57 | 1017.6 |
| 20260509102942 | 18 | 62 | 12.9 | 25.7 | 0.00 | 0.00 | 0.00 | 58 | 1017.6 |
| 20260509102443 | 18 | 7 | 6.4 | 16.1 | 0.00 | 0.00 | 0.00 | 55 | 1017.6 |
| 20260509102209 | 18 | 54 | 11.3 | 22.5 | 0.00 | 0.00 | 0.00 | 58 | 1017.9 |
| 20260509101442 | 18 | 21 | 8.0 | 22.5 | 0.00 | 0.00 | 0.00 | 59 | 1017.7 |
| 20260509100951 | 18 | 62 | 14.5 | 22.5 | 0.00 | 0.00 | 0.00 | 59 | 1017.8 |
| 20260509095948 | 18 | 38 | 9.7 | 22.5 | 0.00 | 0.00 | 0.00 | 55 | 1018.0 |
| 20260509095443 | 18 | 53 | 9.7 | 22.5 | 0.00 | 0.00 | 0.00 | 56 | 1017.8 |
| 20260509094941 | 18 | 77 | 6.4 | 22.5 | 0.00 | 0.00 | 0.00 | 59 | 1017.9 |
| 20260509094442 | 17 | 65 | 16.1 | 22.5 | 0.00 | 0.00 | 0.00 | 56 | 1017.9 |
| 20260509093942 | 17 | 31 | 9.7 | 22.5 | 0.00 | 0.00 | 0.00 | 56 | 1018.0 |
| 20260509093441 | 17 | 38 | 9.7 | 22.5 | 0.00 | 0.00 | 0.00 | 58 | 1018.1 |
| 20260509092941 | 17 | 96 | 12.9 | 22.5 | 0.00 | 0.00 | 0.00 | 56 | 1017.9 |
| 20260509092707 | 17 | 69 | 11.3 | 20.9 | 0.00 | 0.00 | 0.00 | 60 | 1017.9 |
| 20260509091943 | 17 | 13 | 6.4 | 22.5 | 0.00 | 0.00 | 0.00 | 56 | 1018.1 |
| 20260509091443 | 17 | 16 | 11.3 | 22.5 | 0.00 | 0.00 | 0.00 | 57 | 1018.2 |
| 20260509090942 | 17 | 32 | 8.0 | 17.7 | 0.00 | 0.00 | 0.00 | 60 | 1018.0 |
| 20260509090442 | 17 | 36 | 9.7 | 27.4 | 0.00 | 0.00 | 0.00 | 61 | 1017.8 |
| 20260509090233 | 17 | 62 | 14.5 | 27.4 | 0.00 | 0.00 | 0.00 | 59 | 1018.1 |
| 20260509085443 | 17 | 53 | 12.9 | 24.1 | 0.00 | 0.00 | 0.00 | 60 | 1018.0 |
| 20260509084943 | 17 | 79 | 16.1 | 24.1 | 0.00 | 0.00 | 0.00 | 61 | 1017.8 |
| 20260509084442 | 17 | 80 | 17.7 | 24.1 | 0.00 | 0.00 | 0.00 | 61 | 1018.0 |
| 20260509083943 | 17 | 63 | 14.5 | 22.5 | 0.00 | 0.00 | 0.00 | 60 | 1017.9 |
| 20260509083442 | 16 | 50 | 9.7 | 20.9 | 0.00 | 0.00 | 0.00 | 61 | 1018.0 |
| 20260509082948 | 16 | 74 | 9.7 | 25.7 | 0.00 | 0.00 | 0.00 | 62 | 1018.0 |
| 20260509082442 | 16 | 64 | 8.0 | 27.4 | 0.00 | 0.00 | 0.00 | 61 | 1018.1 |
| 20260509082159 | 16 | 79 | 20.9 | 27.4 | 0.00 | 0.00 | 0.00 | 60 | 1018.0 |
| 20260509081706 | 16 | 80 | 16.1 | 25.7 | 0.00 | 0.00 | 0.00 | 61 | 1018.2 |
| 20260509080954 | 16 | 64 | 16.1 | 22.5 | 0.00 | 0.00 | 0.00 | 62 | 1018.3 |
| 20260509080440 | 16 | 60 | 12.9 | 22.5 | 0.00 | 0.00 | 0.00 | 63 | 1018.1 |
| 20260509075441 | 16 | 57 | 9.7 | 17.7 | 0.00 | 0.00 | 0.00 | 68 | 1018.3 |
| 20260509074944 | 15 | 65 | 8.0 | 17.7 | 0.00 | 0.00 | 0.00 | 69 | 1018.3 |
| 20260509074443 | 15 | 17 | 8.0 | 17.7 | 0.00 | 0.00 | 0.00 | 70 | 1018.2 |
| 20260509073945 | 15 | 84 | 11.3 | 17.7 | 0.00 | 0.00 | 0.00 | 72 | 1018.2 |
| 20260509073711 | 15 | 78 | 11.3 | 14.5 | 0.00 | 0.00 | 0.00 | 73 | 1018.2 |
| 20260509072944 | 15 | 74 | 9.7 | 14.5 | 0.00 | 0.00 | 0.00 | 73 | 1018.2 |
| 20260509072443 | 14 | 100 | 9.7 | 14.5 | 0.00 | 0.00 | 0.00 | 73 | 1018.5 |
| 20260509071944 | 14 | 56 | 6.4 | 14.5 | 0.00 | 0.00 | 0.00 | 73 | 1018.2 |
| 20260509071442 | 13 | 84 | 6.4 | 12.9 | 0.00 | 0.00 | 0.00 | 75 | 1018.2 |
| 20260509071216 | 13 | 58 | 6.4 | 12.9 | 0.00 | 0.00 | 0.00 | 74 | 1018.1 |
| 20260509070455 | 13 | 42 | 6.4 | 14.5 | 0.00 | 0.00 | 0.00 | 75 | 1018.3 |
| 20260509065942 | 13 | 79 | 9.7 | 14.5 | 0.00 | 0.00 | 0.00 | 76 | 1018.1 |
| 20260509065709 | 12 | 66 | 9.7 | 12.9 | 0.00 | 0.00 | 0.00 | 78 | 1018.1 |
| 20260509064949 | 12 | 73 | 6.4 | 11.3 | 0.00 | 0.00 | 0.00 | 80 | 1018.0 |
| 20260509064442 | 12 | 91 | 9.7 | 11.3 | 0.00 | 0.00 | 0.00 | 81 | 1018.1 |